{"data":{"norad_id":61723,"intl_designator":"2024-196S","name":"STARLINK-32540","alt_names":[],"object_type":"PAYLOAD","status":"ACTIVE","operator":null,"country":"US","launch_date":"2024-10-30","launch_site_code":"AFETR","launch_vehicle":null,"mission":null,"orbit_class":"UNKNOWN","rcs_meters":null,"size_class":null,"mass_kg":null,"dimensions":null,"purposes":["comms"],"wikipedia_slug":null,"has_3d_model":false,"image_url":null,"decayed_at":null,"tle_current":{"epoch":"2026-09-21T07:58:08.276736Z","epoch_age_seconds":116682,"freshness":"FRESH","line1":"1 61723U 24196S   26264.33204024  .00007333  00000+0  22825-3 0  9996","line2":"2 61723  53.1583 233.4710 0001575  81.6505 278.4677 15.34361044107650","mean_motion":15.34361044,"eccentricity":0.0001575,"inclination_deg":53.1583,"raan_deg":233.471,"arg_perigee_deg":81.6505,"mean_anomaly_deg":278.4677,"bstar":0.00022825,"rev_number":10765,"period_min":93.850140788637,"perigee_km":461.74157752401,"apogee_km":463.89647867287,"semimajor_km":6840.9560280984,"source":"CELESTRAK","updated_at":"2026-09-22T09:00:49.438048Z"}}}